Weather History for KEZF - November, 2012

Change the Weather History Date:

Monday, November 5, 2012

  Actual Average (KNYG) Record (KNYG)
Temperature  
Mean Temperature 43 °F -  
Max Temperature 52 °F 58 °F 78 °F (2003)
Min Temperature 32 °F 39 °F 30 °F (1998)
Degree Days  
Heating Degree Days 22    
Moisture  
Dew Point 30 °F    
Average Humidity 64    
Maximum Humidity 92    
Minimum Humidity 39    
Precipitation  
Precipitation 0.00 in - - ()
Sea Level Pressure  
Sea Level Pressure 30.10 in    
Wind  
Wind Speed 4 mph (NNW)    
Max Wind Speed 13 mph    
Max Gust Speed 22 mph    
Visibility 10 miles    
Events      
Averages and records for this station are not official NWS values.
T = Trace of Precipitation, MM = Missing Value Source: NWS Daily Summary

Daily Weather History Graph

Daily Weather History Graph

Search for Another Location

Airport or City:

Trip Planner

Search our weather history database for the weather conditions in past years. The results will help you decide how hot, cold, wet, or windy it might be!

Date:

Astronomy

Nov. 05, 2012 Rise Set
Actual Time 6:40 AM EST 5:05 PM EST
Civil Twilight 6:13 AM EST 5:33 PM EST
Nautical Twilight 5:41 AM EST 6:04 PM EST
Astronomical Twilight 5:10 AM EST 6:35 PM EST
Moon 10:41 PM EST (11/5) 11:58 AM EST (11/5)
Length of Visible Light 11h 20m
Length of Day
10h 24m
Waning Gibbous, 63% of the Moon is Illuminated
Nov 5
Waning Gibbous
Nov 6
Last Quarter
Nov 13
New
Nov 20
First Quarter
Nov 28
Full

Hourly Weather History & Observations

Time (EST) Temp. Windchill Dew Point Humidity Pressure Visibility Wind Dir Wind Speed Gust Speed Precip Events Conditions
12:15 AM 41.7 °F - 32.0 °F 68% 30.07 in 10.0 mi Calm Calm - N/A   Mostly Cloudy
12:35 AM 41.4 °F - 32.0 °F 69% 30.07 in 10.0 mi Calm Calm - N/A   Overcast
12:55 AM 41.4 °F 39.4 °F 32.0 °F 69% 30.06 in 10.0 mi NNW 3.5 mph - N/A   Overcast
1:15 AM 41.4 °F - 32.0 °F 69% 30.06 in 10.0 mi Calm Calm - N/A   Overcast
1:35 AM 40.8 °F - 32.0 °F 71% 30.06 in 10.0 mi Calm Calm - N/A   Overcast
1:55 AM 38.8 °F - 32.9 °F 79% 30.06 in 10.0 mi Calm Calm - N/A   Scattered Clouds
2:15 AM 37.6 °F 35.1 °F 33.3 °F 84% 30.06 in 10.0 mi NW 3.5 mph - N/A   Clear
2:35 AM 36.9 °F 33.1 °F 32.9 °F 86% 30.06 in 10.0 mi NW 4.6 mph - N/A   Clear
3:15 AM 35.6 °F 31.7 °F 32.0 °F 87% 30.05 in 10.0 mi NW 4.6 mph - N/A   Clear
3:35 AM 36.5 °F 31.8 °F 31.3 °F 81% 30.05 in 10.0 mi NW 5.8 mph - N/A   Clear
3:55 AM 38.3 °F 33.9 °F 30.2 °F 73% 30.06 in 10.0 mi NNW 5.8 mph - N/A   Clear
4:15 AM 38.5 °F 34.1 °F 30.0 °F 72% 30.06 in 10.0 mi NW 5.8 mph - N/A   Clear
4:35 AM 38.5 °F 33.4 °F 30.0 °F 72% 30.07 in 10.0 mi NW 6.9 mph - N/A   Scattered Clouds
4:55 AM 38.8 °F 32.6 °F 29.8 °F 70% 30.07 in 10.0 mi WNW 9.2 mph - N/A   Overcast
5:15 AM 39.2 °F 34.2 °F 30.0 °F 70% 30.08 in 10.0 mi WNW 6.9 mph - N/A   Overcast
5:35 AM 39.7 °F 34.3 °F 30.0 °F 68% 30.08 in 10.0 mi NW 8.1 mph - N/A   Overcast
5:55 AM 40.3 °F 34.9 °F 29.8 °F 66% 30.08 in 10.0 mi NW 8.1 mph - N/A   Overcast
6:15 AM 40.6 °F 37.5 °F 29.8 °F 65% 30.09 in 10.0 mi NW 4.6 mph - N/A   Overcast
6:35 AM 40.6 °F 36.7 °F 29.7 °F 65% 30.09 in 10.0 mi NW 5.8 mph - N/A   Overcast
6:55 AM 40.3 °F 38.2 °F 29.7 °F 66% 30.09 in 10.0 mi NW 3.5 mph - N/A   Overcast
7:15 AM 40.6 °F 38.6 °F 29.7 °F 65% 30.10 in 10.0 mi NNW 3.5 mph - N/A   Overcast
7:35 AM 40.3 °F 37.1 °F 29.8 °F 66% 30.11 in 10.0 mi NNW 4.6 mph - N/A   Scattered Clouds
7:55 AM 41.2 °F 39.2 °F 29.8 °F 64% 30.11 in 10.0 mi NNW 3.5 mph - N/A   Clear
8:15 AM 42.8 °F 39.3 °F 30.0 °F 61% 30.12 in 10.0 mi NNW 5.8 mph - N/A   Clear
8:35 AM 43.2 °F 38.4 °F 29.7 °F 59% 30.12 in 10.0 mi North 8.1 mph - N/A   Clear
8:55 AM 43.7 °F 38.6 °F 28.8 °F 56% 30.11 in 10.0 mi NNW 9.2 mph - N/A   Clear
9:15 AM 44.1 °F 39.0 °F 28.6 °F 55% 30.12 in 10.0 mi North 9.2 mph 21.9 mph N/A   Scattered Clouds
9:35 AM 45.3 °F 39.3 °F 28.8 °F 52% 30.12 in 10.0 mi NNW 12.7 mph 17.3 mph N/A   Scattered Clouds
9:55 AM 46.2 °F 42.2 °F 28.9 °F 51% 30.12 in 10.0 mi North 8.1 mph - N/A   Scattered Clouds
10:15 AM 46.0 °F 40.6 °F 28.0 °F 50% 30.12 in 10.0 mi North 11.5 mph 20.7 mph N/A   Scattered Clouds
10:35 AM 46.8 °F - 28.2 °F 49% 30.12 in 10.0 mi North 8.1 mph 12.7 mph N/A   Clear
10:55 AM 47.3 °F - 28.2 °F 48% 30.12 in 10.0 mi North 8.1 mph 16.1 mph N/A   Clear
11:15 AM 48.0 °F - 27.5 °F 45% 30.12 in 10.0 mi North 8.1 mph 16.1 mph N/A   Clear
11:35 AM 49.1 °F - 27.7 °F 44% 30.11 in 10.0 mi NW 8.1 mph - N/A   Clear
11:55 AM 49.6 °F - 27.9 °F 43% 30.10 in 10.0 mi North 5.8 mph - N/A   Clear
12:15 PM 50.5 °F - 27.9 °F 42% 30.08 in 10.0 mi North 9.2 mph 16.1 mph N/A   Clear
12:35 PM 50.5 °F - 27.7 °F 41% 30.09 in 10.0 mi NNW 4.6 mph - N/A   Clear
12:55 PM 50.7 °F - 28.4 °F 42% 30.09 in 10.0 mi Calm Calm - N/A   Clear
1:15 PM 51.8 °F - 28.9 °F 41% 30.08 in 10.0 mi NW 8.1 mph - N/A   Clear
1:35 PM 52.2 °F - 28.6 °F 40% 30.07 in 10.0 mi North 6.9 mph - N/A   Clear
1:55 PM 51.8 °F - 28.4 °F 41% 30.06 in 10.0 mi North 10.4 mph 16.1 mph N/A   Clear
2:15 PM 52.7 °F - 28.9 °F 40% 30.06 in 10.0 mi NW 8.1 mph - N/A   Clear
2:35 PM 52.3 °F - 28.8 °F 40% 30.06 in 10.0 mi North 4.6 mph - N/A   Clear
2:55 PM 52.3 °F - 28.2 °F 39% 30.05 in 10.0 mi NNW 5.8 mph - N/A   Clear
3:15 PM 52.7 °F - 28.6 °F 40% 30.05 in 10.0 mi NNW 12.7 mph 16.1 mph N/A   Clear
3:35 PM 52.2 °F - 28.4 °F 40% 30.06 in 10.0 mi North 5.8 mph - N/A   Clear
3:55 PM 51.8 °F - 28.8 °F 41% 30.06 in 10.0 mi NNE 6.9 mph - N/A   Clear
4:15 PM 51.4 °F - 29.1 °F 42% 30.07 in 10.0 mi NNE 8.1 mph - N/A   Clear
4:35 PM 50.5 °F - 29.1 °F 44% 30.07 in 10.0 mi North 5.8 mph - N/A   Clear
4:55 PM 50.2 °F - 29.1 °F 44% 30.08 in 10.0 mi North 3.5 mph - N/A   Clear
5:15 PM 48.7 °F - 29.3 °F 47% 30.09 in 10.0 mi NNE 3.5 mph - N/A   Clear
5:35 PM 47.7 °F - 30.0 °F 50% 30.09 in 10.0 mi NNE 4.6 mph - N/A   Clear
5:55 PM 46.4 °F - 30.7 °F 54% 30.10 in 10.0 mi Calm Calm - N/A   Clear
6:15 PM 42.6 °F - 31.8 °F 66% 30.11 in 10.0 mi Calm Calm - N/A   Clear
6:35 PM 41.9 °F - 32.4 °F 69% 30.11 in 10.0 mi Calm Calm - N/A   Clear
6:55 PM 40.6 °F - 32.0 °F 71% 30.12 in 10.0 mi Calm Calm - N/A   Clear
7:15 PM 39.4 °F - 32.7 °F 77% 30.12 in 10.0 mi Calm Calm - N/A   Clear
7:35 PM 38.8 °F - 32.5 °F 78% 30.12 in 10.0 mi Calm Calm - N/A   Clear
7:55 PM 38.1 °F - 32.0 °F 79% 30.13 in 10.0 mi Calm Calm - N/A   Clear
8:15 PM 37.4 °F - 31.8 °F 80% 30.14 in 10.0 mi Calm Calm - N/A   Clear
8:35 PM 36.5 °F - 32.0 °F 84% 30.15 in 10.0 mi Calm Calm - N/A   Clear
8:55 PM 37.0 °F - 32.0 °F 82% 30.16 in 10.0 mi Calm Calm - N/A   Clear
9:15 PM 36.9 °F - 32.0 °F 83% 30.17 in 10.0 mi Calm Calm - N/A   Clear
9:35 PM 35.4 °F 31.5 °F 31.8 °F 87% 30.17 in 10.0 mi North 4.6 mph - N/A   Clear
9:55 PM 34.7 °F 31.8 °F 30.6 °F 85% 30.17 in 10.0 mi NW 3.5 mph - N/A   Clear
10:15 PM 34.2 °F - 30.9 °F 88% 30.17 in 10.0 mi Calm Calm - N/A   Clear
10:35 PM 34.3 °F - 32.0 °F 91% 30.17 in 10.0 mi Calm Calm - N/A   Clear
10:55 PM 34.2 °F - 32.0 °F 92% 30.17 in 10.0 mi Calm Calm - N/A   Clear
11:15 PM 34.3 °F 31.4 °F 32.0 °F 91% 30.17 in 10.0 mi North 3.5 mph - N/A   Clear
11:35 PM 34.9 °F - 32.2 °F 90% 30.17 in 10.0 mi Calm Calm - N/A   Clear
11:55 PM 32.7 °F - 30.2 °F 90% 30.17 in 10.0 mi Calm Calm - N/A   Clear